Wind_Speed
15 14 15 16 18 20 21 23 24 27 30 32 30 29 29 28 27 27 28 28 29 30 31 32 33 34 34 34 32 31 32 29
14 15 17 20 22 24 25 27 28 29 31 31 30 29 30 31 31 31 31 31 32 32 33 34 34 35 36 38 37 35 35 33
16 18 20 22 24 26 27 27 28 29 30 31 32 32 33 33 34 35 35 35 36 36 36 37 37 37 37 38 39 39 38 37
15 18 21 22 22 24 25 25 27 28 30 31 32 33 34 35 37 37 37 37 37 38 39 39 40 40 40 39 39 40 41 40
19 19 20 22 23 23 24 25 27 29 30 31 33 34 34 33 34 34 35 35 36 37 39 41 41 41 42 43 42 42 42 42
17 17 18 18 20 22 24 26 28 30 31 30 29 29 28 29 30 31 32 33 34 36 38 40 42 43 44 44 45 45 45 44
17 17 18 19 20 22 25 26 26 26 26 26 27 29 30 30 31 31 32 33 34 35 36 38 40 42 44 45 45 46 46 47
17 17 18 19 20 22 23 23 23 24 27 28 29 30 30 31 32 32 33 33 34 34 36 37 39 41 42 44 46 45 47 48
16 16 17 18 20 20 21 23 26 28 29 31 31 31 31 32 33 33 34 34 35 35 36 37 37 39 41 43 46 47 47 47
14 15 15 15 16 19 23 26 26 27 29 30 31 31 32 32 33 33 33 34 35 35 37 37 39 39 40 41 42 45 47 48
12 12 12 14 17 20 23 23 25 28 30 32 32 33 33 33 33 33 33 33 34 35 36 39 40 40 41 41 42 42 44 46
10 12 14 17 20 22 22 24 28 31 32 32 32 32 32 32 33 34 34 35 35 35 37 38 40 41 39 41 42 42 43 44
10 12 15 18 21 21 24 27 30 32 32 33 32 32 32 32 33 34 34 35 36 37 38 39 38 42 44 42 39 40 41 42
12 14 15 17 19 24 29 33 34 35 35 34 32 31 31 32 33 34 34 34 35 37 37 34 39 39 40 35 31 28 30 34
13 16 16 19 24 30 33 35 34 33 32 31 30 29 30 31 32 33 34 35 35 35 33 37 33 29 27 28 27 22 20 23
15 17 19 25 29 31 32 32 30 28 27 27 27 27 28 29 30 32 32 33 33 32 32 34 29 21 20 23 25 26 23 16
19 19 24 27 28 30 30 28 26 25 25 26 26 27 27 27 28 29 29 30 30 30 30 30 25 20 20 21 23 23 22 26
17 22 25 26 28 29 28 27 26 25 24 25 25 25 25 25 25 25 26 25 26 28 29 28 26 23 22 22 24 24 22 25
22 24 23 27 28 29 30 28 25 22 22 23 24 25 25 24 22 22 22 21 21 25 27 28 27 23 22 23 24 26 27 27
22 22 24 29 32 34 34 31 26 23 23 22 22 23 24 24 23 20 19 19 18 19 24 24 25 27 26 24 23 24 25 27
Wind_Direction
227 237 249 260 268 275 281 285 285 287 290 291 292 294 293 291 289 288 287 286 287 285 282 280 275 268 262 258 256 254 259 260
247 260 269 273 275 280 283 285 289 289 290 291 292 292 291 290 289 288 285 285 284 284 283 280 277 273 268 263 258 254 252 253
252 260 266 269 272 275 279 284 286 287 288 289 289 291 291 291 290 289 287 285 283 281 279 278 277 275 272 267 262 258 253 252
273 277 278 278 280 282 284 286 289 291 291 291 291 292 293 292 291 289 287 285 282 280 277 274 273 272 271 269 267 262 258 253
283 286 289 289 290 291 293 295 296 296 296 297 297 297 296 294 293 291 289 287 284 280 278 279 276 272 271 270 267 265 261 256
297 294 293 294 296 296 297 298 298 299 298 299 299 299 299 297 295 293 291 288 285 282 280 277 276 275 273 269 268 267 265 262
308 307 306 303 302 302 301 302 303 305 307 309 309 307 305 303 300 298 295 291 287 284 281 279 277 275 274 273 269 267 265 264
313 310 309 309 308 307 307 308 312 315 315 314 312 310 308 306 305 303 300 296 291 287 283 279 276 274 273 272 271 268 265 263
303 307 309 310 311 314 317 318 317 316 316 315 313 311 308 306 305 305 303 301 297 294 291 288 284 282 278 272 269 268 266 262
295 299 301 308 314 315 315 316 316 317 319 318 317 317 316 314 311 309 307 304 300 297 295 292 289 286 283 279 276 270 267 265
291 299 305 310 314 315 316 316 318 322 323 322 320 317 315 313 312 312 311 308 304 300 298 295 293 289 286 283 278 274 269 264
299 302 305 308 314 317 317 318 322 323 322 320 317 314 312 312 313 314 313 311 309 306 302 300 297 294 292 288 282 274 269 262
292 293 300 310 316 319 318 318 316 318 317 316 313 312 312 313 312 313 313 313 312 311 308 303 307 302 296 284 278 272 266 263
284 288 298 309 313 312 312 314 313 310 310 309 311 311 311 311 313 315 316 317 316 316 310 314 311 301 289 286 282 272 271 267
291 297 307 311 311 312 314 314 310 308 308 306 305 305 307 311 315 318 319 320 320 320 321 319 311 302 306 306 301 288 273 263
298 302 302 309 313 315 313 309 307 307 305 303 304 309 311 314 316 317 319 322 323 326 331 319 314 307 312 318 315 314 310 271
298 289 306 313 319 322 322 321 319 314 312 311 311 310 311 312 314 318 321 323 327 334 339 330 325 328 332 328 314 308 308 307
286 304 312 319 321 325 327 329 327 322 316 312 310 309 310 311 315 318 320 324 332 340 347 344 339 341 343 342 331 327 322 311
297 307 316 320 316 321 327 329 322 317 313 311 312 314 314 314 315 317 320 322 332 345 353 354 356 357 354 347 336 330 330 322
302 308 311 314 318 324 327 324 319 314 311 312 315 316 316 317 318 320 325 328 327 333 344 351 5 11 12 5 352 338 334 329
Height
3146 3148 3148 3148 3148 3148 3146 3146 3144 3143 3142 3141 3139 3137 3136 3135 3133 3132 3130 3128 3126 3125 3124 3123 3123 3122 3122 3121 3123 3123 3124 3124
3145 3145 3145 3145 3145 3144 3143 3142 3141 3140 3138 3137 3135 3134 3131 3129 3128 3127 3125 3123 3121 3120 3119 3118 3116 3115 3115 3115 3115 3116 3116 3118
3143 3143 3143 3143 3142 3141 3140 3138 3137 3136 3134 3132 3130 3129 3127 3124 3123 3121 3118 3117 3115 3113 3111 3111 3110 3109 3108 3107 3107 3108 3109 3111
3142 3141 3140 3139 3138 3136 3135 3134 3132 3131 3129 3127 3125 3123 3120 3118 3116 3114 3111 3109 3107 3106 3104 3102 3101 3101 3100 3099 3099 3099 3101 3103
3137 3135 3133 3132 3130 3129 3128 3127 3126 3124 3122 3120 3118 3116 3113 3110 3107 3105 3102 3100 3099 3097 3095 3094 3093 3092 3092 3092 3091 3090 3091 3093
3130 3128 3127 3126 3125 3124 3123 3122 3120 3118 3116 3114 3111 3109 3106 3104 3101 3098 3095 3093 3091 3088 3087 3084 3083 3082 3081 3082 3082 3082 3082 3083
3125 3124 3123 3122 3120 3119 3117 3116 3114 3111 3109 3107 3105 3103 3100 3097 3093 3090 3087 3085 3082 3080 3077 3076 3074 3072 3071 3070 3071 3071 3072 3072
3120 3119 3118 3116 3115 3114 3112 3110 3108 3106 3104 3101 3098 3095 3092 3089 3086 3082 3079 3076 3073 3070 3068 3066 3064 3063 3062 3060 3059 3060 3060 3061
3117 3115 3113 3112 3111 3109 3108 3106 3103 3101 3098 3095 3092 3088 3085 3081 3078 3075 3072 3068 3064 3061 3058 3056 3054 3053 3051 3050 3048 3048 3048 3049
3114 3113 3111 3109 3107 3105 3103 3101 3098 3094 3092 3088 3084 3080 3077 3073 3070 3067 3064 3060 3056 3053 3050 3047 3044 3042 3040 3039 3038 3036 3037 3038
3110 3109 3107 3105 3103 3101 3099 3096 3093 3089 3085 3082 3078 3074 3070 3067 3063 3060 3057 3053 3049 3044 3041 3037 3034 3031 3028 3027 3025 3024 3024 3024
3106 3105 3103 3101 3098 3096 3094 3091 3087 3083 3080 3077 3073 3069 3065 3061 3057 3053 3049 3046 3041 3037 3033 3029 3023 3018 3016 3014 3012 3010 3009 3011
3102 3102 3100 3097 3095 3092 3089 3085 3082 3078 3075 3072 3068 3064 3060 3055 3051 3047 3043 3038 3033 3029 3024 3019 3014 3007 3002 3001 2999 2996 2996 2997
3098 3097 3096 3093 3091 3089 3086 3082 3078 3074 3069 3064 3061 3057 3053 3049 3045 3040 3036 3031 3026 3021 3016 3011 3006 2997 2992 2988 2988 2989 2987 2985
3094 3093 3092 3090 3088 3084 3080 3076 3073 3067 3061 3057 3054 3050 3047 3042 3038 3033 3029 3024 3020 3015 3008 3004 3000 2993 2985 2980 2978 2978 2979 2978
3089 3089 3088 3086 3083 3079 3075 3069 3065 3060 3055 3052 3048 3044 3040 3036 3033 3029 3024 3020 3015 3009 3003 3000 2993 2989 2983 2977 2974 2970 2968 2971
3085 3085 3083 3080 3076 3073 3068 3062 3058 3054 3049 3046 3042 3039 3035 3032 3029 3024 3019 3015 3010 3005 3000 2995 2990 2983 2977 2974 2973 2970 2965 2962
3083 3081 3077 3074 3070 3066 3063 3056 3052 3048 3044 3042 3039 3036 3032 3028 3024 3019 3015 3011 3007 3002 2998 2993 2987 2979 2973 2969 2968 2965 2962 2958
3078 3075 3071 3068 3065 3061 3056 3050 3047 3045 3041 3038 3035 3032 3028 3024 3020 3015 3012 3008 3004 3000 2996 2992 2985 2978 2971 2967 2965 2962 2958 2955
3071 3068 3066 3063 3058 3053 3049 3045 3041 3039 3037 3034 3030 3027 3024 3021 3016 3011 3008 3005 3002 2998 2996 2991 2985 2978 2972 2968 2964 2960 2956 2951